Time,TemperatureF,DewpointF,PressureIn,WindDirection,WindDirectionDegrees,WindSpeedMPH,WindSpeedGustMPH,Humidity,HourlyPrecipIn,Conditions,Clouds,dailyrainin,SoftwareType,DateUTC
2013-06-20 00:03:00,62.9,9.0,29.68,WSW,257,29.0,41.0,12,0.00,,,0.00,weatherlink.com 1.10,2013-06-20 06:03:00,
2013-06-20 00:18:00,62.3,11.0,29.69,SW,216,27.0,38.0,13,0.00,,,0.00,weatherlink.com 1.10,2013-06-20 06:18:00,
2013-06-20 00:33:00,62.1,7.0,29.70,SW,224,17.0,32.0,11,0.00,,,0.00,weatherlink.com 1.10,2013-06-20 06:33:00,
2013-06-20 00:48:00,61.6,6.0,29.72,SW,234,19.0,28.0,11,0.00,,,0.00,weatherlink.com 1.10,2013-06-20 06:48:00,
2013-06-20 01:03:00,61.8,6.0,29.74,NNE,29,10.0,24.0,11,0.00,,,0.00,weatherlink.com 1.10,2013-06-20 07:03:00,
2013-06-20 01:18:00,58.4,16.0,29.75,NNW,328,3.0,14.0,19,0.00,,,0.00,weatherlink.com 1.10,2013-06-20 07:18:00,
2013-06-20 01:33:00,55.9,18.0,29.75,North,359,1.0,7.0,23,0.00,,,0.00,weatherlink.com 1.10,2013-06-20 07:33:00,
2013-06-20 01:48:00,55.3,19.0,29.75,NW,317,1.0,6.0,24,0.00,,,0.00,weatherlink.com 1.10,2013-06-20 07:48:00,
2013-06-20 02:03:00,49.6,21.0,29.75,WSW,239,0.0,5.0,32,0.00,,,0.00,weatherlink.com 1.10,2013-06-20 08:03:00,
2013-06-20 02:19:00,48.0,21.0,29.76,WSW,240,4.0,5.0,35,0.00,,,0.00,weatherlink.com 1.10,2013-06-20 08:19:00,
2013-06-20 02:34:00,47.4,17.0,29.78,ESE,112,7.0,13.0,30,0.00,,,0.00,weatherlink.com 1.10,2013-06-20 08:34:00,
2013-06-20 02:49:00,50.5,19.0,29.78,ESE,109,7.0,16.0,29,0.00,,,0.00,weatherlink.com 1.10,2013-06-20 08:49:00,
2013-06-20 03:04:00,49.1,21.0,29.79,East,97,7.0,11.0,33,0.00,,,0.00,weatherlink.com 1.10,2013-06-20 09:04:00,
2013-06-20 03:19:00,48.0,21.0,29.80,SE,142,4.0,10.0,35,0.00,,,0.00,weatherlink.com 1.10,2013-06-20 09:19:00,
2013-06-20 03:34:00,48.6,21.0,29.80,ESE,116,12.0,13.0,33,0.00,,,0.00,weatherlink.com 1.10,2013-06-20 09:34:00,
2013-06-20 03:49:00,46.8,20.0,29.81,SSE,156,3.0,6.0,35,0.00,,,0.00,weatherlink.com 1.10,2013-06-20 09:49:00,
2013-06-20 04:04:00,46.0,23.0,29.81,South,172,2.0,7.0,41,0.00,,,0.00,weatherlink.com 1.10,2013-06-20 10:04:00,
2013-06-20 04:19:00,44.6,20.0,29.81,ESE,110,8.0,8.0,38,0.00,,,0.00,weatherlink.com 1.10,2013-06-20 10:19:00,
2013-06-20 04:34:00,45.2,21.0,29.82,SSW,207,0.0,2.0,38,0.00,,,0.00,weatherlink.com 1.10,2013-06-20 10:34:00,
2013-06-20 04:49:00,43.6,22.0,29.82,SE,143,3.0,3.0,42,0.00,,,0.00,weatherlink.com 1.10,2013-06-20 10:49:00,
2013-06-20 05:04:00,41.2,26.0,29.83,SE,143,0.0,3.0,56,0.00,,,0.00,weatherlink.com 1.10,2013-06-20 11:04:00,
2013-06-20 05:19:00,40.3,23.0,29.84,SSW,213,1.0,3.0,51,0.00,,,0.00,weatherlink.com 1.10,2013-06-20 11:19:00,
2013-06-20 05:34:00,39.2,23.0,29.85,SW,214,4.0,4.0,53,0.00,,,0.00,weatherlink.com 1.10,2013-06-20 11:34:00,
2013-06-20 05:49:00,39.3,23.0,29.86,SW,215,2.0,6.0,52,0.00,,,0.00,weatherlink.com 1.10,2013-06-20 11:49:00,
2013-06-20 06:04:00,40.6,25.0,29.86,SW,215,2.0,6.0,54,0.00,,,0.00,weatherlink.com 1.10,2013-06-20 12:04:00,
2013-06-20 06:19:00,42.5,23.0,29.86,SW,215,2.0,3.0,46,0.00,,,0.00,weatherlink.com 1.10,2013-06-20 12:19:00,
2013-06-20 06:34:00,45.1,23.0,29.87,West,260,2.0,5.0,42,0.00,,,0.00,weatherlink.com 1.10,2013-06-20 12:34:00,
2013-06-20 06:49:00,49.4,26.0,29.86,West,260,3.0,3.0,40,0.00,,,0.00,weatherlink.com 1.10,2013-06-20 12:49:00,
2013-06-20 07:04:00,50.8,25.0,29.87,SSE,158,1.0,4.0,37,0.00,,,0.00,weatherlink.com 1.10,2013-06-20 13:04:00,
2013-06-20 07:19:00,52.5,27.0,29.87,South,173,0.0,3.0,37,0.00,,,0.00,weatherlink.com 1.10,2013-06-20 13:19:00,
2013-06-20 07:34:00,55.6,23.0,29.87,East,83,2.0,7.0,28,0.00,,,0.00,weatherlink.com 1.10,2013-06-20 13:34:00,
2013-06-20 07:49:00,54.4,20.0,29.88,South,174,5.0,10.0,26,0.00,,,0.00,weatherlink.com 1.10,2013-06-20 13:49:00,
2013-06-20 08:04:00,53.9,21.0,29.88,ENE,72,3.0,9.0,28,0.00,,,0.00,weatherlink.com 1.10,2013-06-20 14:04:00,
2013-06-20 08:19:00,54.2,22.0,29.88,NE,56,8.0,8.0,28,0.00,,,0.00,weatherlink.com 1.10,2013-06-20 14:19:00,
2013-06-20 08:34:00,54.4,24.0,29.88,ENE,73,2.0,11.0,31,0.00,,,0.00,weatherlink.com 1.10,2013-06-20 14:34:00,
2013-06-20 08:49:00,54.7,25.0,29.88,ENE,77,4.0,8.0,32,0.00,,,0.00,weatherlink.com 1.10,2013-06-20 14:49:00,
2013-06-20 09:04:00,57.0,21.0,29.88,SSE,163,3.0,10.0,25,0.00,,,0.00,weatherlink.com 1.10,2013-06-20 15:04:00,
2013-06-20 09:19:00,57.3,22.0,29.89,ENE,70,8.0,14.0,26,0.00,,,0.00,weatherlink.com 1.10,2013-06-20 15:19:00,
2013-06-20 09:34:00,57.8,20.0,29.89,East,93,6.0,11.0,23,0.00,,,0.00,weatherlink.com 1.10,2013-06-20 15:34:00,
2013-06-20 09:49:00,58.9,18.0,29.89,East,88,6.0,7.0,20,0.00,,,0.00,weatherlink.com 1.10,2013-06-20 15:49:00,
2013-06-20 10:04:00,59.3,18.0,29.88,East,86,1.0,14.0,20,0.00,,,0.00,weatherlink.com 1.10,2013-06-20 16:04:00,
2013-06-20 10:19:00,61.2,17.0,29.89,SE,128,3.0,9.0,18,0.00,,,0.00,weatherlink.com 1.10,2013-06-20 16:19:00,
2013-06-20 10:34:00,62.6,17.0,29.89,East,87,6.0,8.0,17,0.00,,,0.00,weatherlink.com 1.10,2013-06-20 16:34:00,
2013-06-20 10:49:00,62.0,18.0,29.88,SSE,156,4.0,14.0,18,0.00,,,0.00,weatherlink.com 1.10,2013-06-20 16:49:00,
2013-06-20 11:04:00,63.1,17.0,29.88,ESE,116,2.0,11.0,17,0.00,,,0.00,weatherlink.com 1.10,2013-06-20 17:04:00,
2013-06-20 11:19:00,63.9,18.0,29.88,East,85,5.0,11.0,17,0.00,,,0.00,weatherlink.com 1.10,2013-06-20 17:19:00,
2013-06-20 11:34:00,64.8,19.0,29.87,ESE,118,7.0,11.0,17,0.00,,,0.00,weatherlink.com 1.10,2013-06-20 17:34:00,
2013-06-20 11:50:00,65.5,19.0,29.87,ESE,114,2.0,11.0,17,0.00,,,0.00,weatherlink.com 1.10,2013-06-20 17:50:00,
2013-06-20 12:05:00,66.1,20.0,29.86,East,83,8.0,14.0,17,0.00,,,0.00,weatherlink.com 1.10,2013-06-20 18:05:00,
2013-06-20 12:20:00,66.9,21.0,29.86,ESE,111,7.0,14.0,17,0.00,,,0.00,weatherlink.com 1.10,2013-06-20 18:20:00,
2013-06-20 12:35:00,67.3,19.0,29.84,ESE,120,10.0,13.0,16,0.00,,,0.00,weatherlink.com 1.10,2013-06-20 18:35:00,
2013-06-20 12:50:00,68.3,15.0,29.84,ESE,114,9.0,13.0,13,0.00,,,0.00,weatherlink.com 1.10,2013-06-20 18:50:00,
2013-06-20 13:05:00,69.3,14.0,29.84,East,100,0.0,14.0,12,0.00,,,0.00,weatherlink.com 1.10,2013-06-20 19:05:00,
2013-06-20 13:20:00,69.6,17.0,29.84,NE,43,3.0,8.0,13,0.00,,,0.00,weatherlink.com 1.10,2013-06-20 19:20:00,
2013-06-20 13:35:00,72.1,17.0,29.83,ENE,70,4.0,13.0,12,0.00,,,0.00,weatherlink.com 1.10,2013-06-20 19:35:00,
2013-06-20 13:50:00,72.1,17.0,29.82,East,79,7.0,13.0,12,0.00,,,0.00,weatherlink.com 1.10,2013-06-20 19:50:00,
2013-06-20 14:05:00,72.8,21.0,29.82,NE,47,4.0,7.0,14,0.00,,,0.00,weatherlink.com 1.10,2013-06-20 20:05:00,
2013-06-20 14:20:00,72.5,17.0,29.83,West,269,2.0,10.0,12,0.00,,,0.00,weatherlink.com 1.10,2013-06-20 20:20:00,
2013-06-20 14:35:00,72.1,15.0,29.84,WSW,237,9.0,19.0,11,0.00,,,0.00,weatherlink.com 1.10,2013-06-20 20:35:00,
2013-06-20 14:50:00,72.1,17.0,29.84,NW,314,6.0,22.0,12,0.00,,,0.00,weatherlink.com 1.10,2013-06-20 20:50:00,
2013-06-20 15:05:00,72.7,22.0,29.83,West,261,4.0,19.0,15,0.00,,,0.00,weatherlink.com 1.10,2013-06-20 21:05:00,
2013-06-20 15:20:00,73.2,15.0,29.84,WSW,256,15.0,22.0,11,0.00,,,0.00,weatherlink.com 1.10,2013-06-20 21:20:00,
2013-06-20 15:35:00,72.5,17.0,29.84,WSW,240,14.0,27.0,12,0.00,,,0.00,weatherlink.com 1.10,2013-06-20 21:35:00,
2013-06-20 15:50:00,72.3,15.0,29.84,SW,214,23.0,30.0,11,0.00,,,0.00,weatherlink.com 1.10,2013-06-20 21:50:00,
2013-06-20 16:05:00,72.7,17.0,29.84,West,273,7.0,24.0,12,0.00,,,0.00,weatherlink.com 1.10,2013-06-20 22:05:00,
2013-06-20 16:20:00,72.7,19.0,29.84,WSW,251,21.0,32.0,13,0.00,,,0.00,weatherlink.com 1.10,2013-06-20 22:20:00,
2013-06-20 16:35:00,73.0,19.0,29.84,WSW,249,8.0,28.0,13,0.00,,,0.00,weatherlink.com 1.10,2013-06-20 22:35:00,
2013-06-20 16:50:00,72.3,15.0,29.84,SW,218,15.0,26.0,11,0.00,,,0.00,weatherlink.com 1.10,2013-06-20 22:50:00,
2013-06-20 17:05:00,72.8,17.0,29.84,SW,236,12.0,21.0,12,0.00,,,0.00,weatherlink.com 1.10,2013-06-20 23:05:00,
2013-06-20 17:20:00,72.7,15.0,29.84,SW,223,10.0,17.0,11,0.00,,,0.00,weatherlink.com 1.10,2013-06-20 23:20:00,
2013-06-20 17:35:00,72.5,19.0,29.84,WSW,247,5.0,19.0,13,0.00,,,0.00,weatherlink.com 1.10,2013-06-20 23:35:00,
2013-06-20 17:50:00,73.0,19.0,29.85,SW,217,10.0,15.0,13,0.00,,,0.00,weatherlink.com 1.10,2013-06-20 23:50:00,
2013-06-20 18:05:00,72.7,21.0,29.85,SSW,210,7.0,21.0,14,0.00,,,0.00,weatherlink.com 1.10,2013-06-21 00:05:00,
2013-06-20 18:20:00,72.0,18.0,29.85,SSW,203,10.0,16.0,13,0.00,,,0.00,weatherlink.com 1.10,2013-06-21 00:20:00,
2013-06-20 18:35:00,73.0,19.0,29.84,SSW,198,7.0,11.0,13,0.00,,,0.00,weatherlink.com 1.10,2013-06-21 00:35:00,
2013-06-20 18:50:00,71.6,21.0,29.84,SW,216,10.0,16.0,15,0.00,,,0.00,weatherlink.com 1.10,2013-06-21 00:50:00,
2013-06-20 19:05:00,71.6,21.0,29.84,SSW,211,5.0,8.0,15,0.00,,,0.00,weatherlink.com 1.10,2013-06-21 01:05:00,
2013-06-20 19:20:00,72.3,20.0,29.84,South,176,1.0,12.0,14,0.00,,,0.00,weatherlink.com 1.10,2013-06-21 01:20:00,
2013-06-20 19:35:00,72.3,25.0,29.84,SSW,203,4.0,6.0,17,0.00,,,0.00,weatherlink.com 1.10,2013-06-21 01:35:00,
2013-06-20 19:50:00,70.6,24.0,29.84,SW,220,3.0,5.0,17,0.00,,,0.00,weatherlink.com 1.10,2013-06-21 01:50:00,
2013-06-20 20:05:00,69.6,33.0,29.84,SW,220,6.0,6.0,26,0.00,,,0.00,weatherlink.com 1.10,2013-06-21 02:05:00,
2013-06-20 20:20:00,64.3,26.0,29.85,WSW,252,5.0,9.0,23,0.00,,,0.00,weatherlink.com 1.10,2013-06-21 02:20:00,
2013-06-20 20:35:00,63.4,25.0,29.84,SSW,213,4.0,8.0,23,0.00,,,0.00,weatherlink.com 1.10,2013-06-21 02:35:00,
2013-06-20 20:50:00,60.9,25.0,29.85,SW,214,4.0,4.0,25,0.00,,,0.00,weatherlink.com 1.10,2013-06-21 02:50:00,
2013-06-20 21:05:00,60.4,24.0,29.86,SW,214,0.0,4.0,25,0.00,,,0.00,weatherlink.com 1.10,2013-06-21 03:05:00,
2013-06-20 21:20:00,58.9,26.0,29.86,SW,214,1.0,3.0,28,0.00,,,0.00,weatherlink.com 1.10,2013-06-21 03:20:00,
2013-06-20 21:35:00,57.2,24.0,29.87,SW,214,1.0,2.0,28,0.00,,,0.00,weatherlink.com 1.10,2013-06-21 03:35:00,
2013-06-20 21:50:00,55.6,24.0,29.88,SW,214,0.0,5.0,29,0.00,,,0.00,weatherlink.com 1.10,2013-06-21 03:50:00,
2013-06-20 22:05:00,53.9,27.0,29.89,SW,214,0.0,5.0,35,0.00,,,0.00,weatherlink.com 1.10,2013-06-21 04:05:00,
2013-06-20 22:20:00,51.9,32.0,29.90,SW,214,5.0,6.0,47,0.00,,,0.00,weatherlink.com 1.10,2013-06-21 04:20:00,
2013-06-20 22:35:00,51.6,24.0,29.90,SW,214,0.0,4.0,34,0.00,,,0.00,weatherlink.com 1.10,2013-06-21 04:35:00,
2013-06-20 22:50:00,53.6,21.0,29.90,North,4,4.0,7.0,28,0.00,,,0.00,weatherlink.com 1.10,2013-06-21 04:50:00,
2013-06-20 23:05:00,62.3,19.0,29.91,NNE,26,8.0,11.0,19,0.00,,,0.00,weatherlink.com 1.10,2013-06-21 05:05:00,
2013-06-20 23:20:00,63.5,20.0,29.91,NNE,13,10.0,14.0,19,0.00,,,0.00,weatherlink.com 1.10,2013-06-21 05:20:00,
2013-06-20 23:35:00,64.8,19.0,29.91,NNW,339,5.0,11.0,17,0.00,,,0.00,weatherlink.com 1.10,2013-06-21 05:35:00,
2013-06-20 23:50:00,61.3,23.0,29.91,WNW,285,6.0,7.0,23,0.00,,,0.00,weatherlink.com 1.10,2013-06-21 05:50:00,